Showing default

TIANPING 3A-01, 61614

Orbit data source: Space-Track

TIANPING 3A-01, 61614 is a payload satellite owned by ZJUNI-SAT (CN) in SSO that was launched on Tue, 22 Oct 2024 UTC via a CHANG ZHENG 6 launch vehicle from the Taiyaun Space Center, China (TSC). Payload-class satellites include a variety of spacecraft equipped with specific instruments for various scientific and technological missions. These include communications satellites like Starlink; space stations such as the ISS; scientific satellites like the Hubble; Earth observation satellites from companies like Planet Labs, Umbra, and HawkEye 360; GPS; miniature CubeSats for education and research; and military/defense satellites.

Loading next visibility...
Identifier
61614, 2024-189A
Orbit
SSO
Country
Flag of CNCN / PRC
Related business
Manufacturer
ZJUNI-SAT
Mission
Operational Defense Calibration
Bus & Motor
TP-3, Unknown motor
Mass
200 kg wet, ~200 kg dry
Launch date (UTC)
2024-10-22 (2 years ago)
Launch vehicle
CHANG ZHENG 6
Launch site
Taiyaun Space Center, China (TSC)
Object type
Payload
Rocket body
Debris
Shape & HBR
Box, 0.3 m
Radar Cross Section
0.135 m², Large (>1 m²)

Expand to show TLE details & history
Last TLE update: 4 hours ago

TLE from 4 hours ago
0 TIANPING 3A-01
1 61614U 24189A   26127.98196095  .00002557  00000-0  20499-3 0  9993
2 61614  97.5247 149.4797 0003021  85.7946 274.3624 15.00973051 84450
Epoch: 2026-05-07T23:34Z
TLE epoch observation values (Epoch: 2026-05-07T23:34:01.426Z)
Latitude
0.00004°
Longitude
-69.84654°
Altitude
566.797 km
Speed
7.578 km/s
True Right ascension
09h 57m 55s
True Declination
0° 00' 00"
Sunlit
Object was in daylight at epoch
Visualization orbit readout
Latitude
Unknown
Longitude
Unknown
Altitude
Unknown
Speed
Unknown
Apparent Right ascension
Unknown
Apparent Declination
Unknown
Sunlit
N/A
Visualization observer readout
Local Sidereal Time
11:07:30
Azimuth
Unknown
Elevation
Unknown
Doppler factor
Unknown
Orbital elements
Apogee altitude
562.987 km
Perigee altitude
558.795 km
Semi-major axis
6,939.028 km
Eccentricity
0.0003
Inclination
97.5247°
RAAN
149.4797°
Arg. of periapsis
85.7946°
True anomaly
274.32788°
Mean anomaly
274.3624°
Eccentric anomaly
274.34514°
Mean motion
3.75487 °/min
Orbital period
95.88 mins
BSTAR
0.00020499
Loading maneuver chart data...
Computing Atmospheric mass density...
Loading historical data...
Loading historical data...
Loading historical data...
Loading historical data...
Loading historical data...
Loading historical data...
Loading historical data...
Other satellites on launch #189 in the year 2024 (2024-10-22 UTC)

Documentation

Showing up to 5 results
|